Tracking 19193 objects as of 24-Jun-2018
HD Live streaming from Space Station
objects crossing your sky now

FENGYUN 1C DEB


10-day predictions


NORAD ID: 31904
Int'l Code: 1999-025CLF
Launch date: May 10, 1999
Source: People's Republic of China (PRC)
Launch site: Taiyaun Space Center, China (TSC)

Note: This is SATELLITE DEBRIS
aabbcc
Your satellite tracking list
Your tracking list is empty




NASA's NSSDC Master Catalog

Two Line Element Set (TLE):
1 31904U 99025CLF 18171.28497325  .00001160  00000-0  83707-3 0  9996
2 31904  98.8993 347.7032 0186418  80.3469 281.8694 13.90620540556801
Source of the keplerian elements: AFSPC